TimeAWST,TemperatureF,Dew PointF,Humidity,Sea Level PressureIn,VisibilityMPH,Wind Direction,Wind SpeedMPH,Gust SpeedMPH,PrecipitationIn,Events,Conditions,WindDirDegrees,DateUTC
12:00 AM,68,39,23,29.77,,East,19.6,,,,,80,2012-11-18 16:00:00
12:00 AM,68.0,39.2,35,29.77,-9999.0,East,19.6,-,N/A,,Unknown,80,2012-11-18 16:00:00
1:00 AM,66.2,39.2,37,29.80,-9999.0,East,13.8,-,N/A,,Unknown,80,2012-11-18 17:00:00
2:00 AM,67,38,23,29.78,,ENE,13.8,,,,,70,2012-11-18 18:00:00
2:00 AM,68.0,37.4,33,29.80,-9999.0,ENE,13.8,-,N/A,,Unknown,70,2012-11-18 18:00:00
3:00 AM,68.0,35.6,30,29.77,-9999.0,ENE,16.1,-,N/A,,Unknown,60,2012-11-18 19:00:00
4:00 AM,68.0,33.8,28,29.77,-9999.0,ENE,16.1,-,N/A,,Unknown,60,2012-11-18 20:00:00
5:00 AM,69,34,17,29.76,,ENE,12.7,,,,,70,2012-11-18 21:00:00
5:00 AM,69.8,33.8,27,29.77,-9999.0,ENE,12.7,-,N/A,,Unknown,70,2012-11-18 21:00:00
6:00 AM,74,34,14,29.77,,NE,18.4,,,,,50,2012-11-18 22:00:00
6:00 AM,75.2,33.8,22,29.77,-9999.0,NE,18.4,-,N/A,,Unknown,50,2012-11-18 22:00:00
7:00 AM,82.4,32.0,16,29.74,-9999.0,NE,17.3,-,N/A,,Unknown,40,2012-11-18 23:00:00
7:59 AM,91.4,26.6,10,29.74,-9999.0,NNE,18.4,-,N/A,,Unknown,30,2012-11-18 23:59:00
8:00 AM,91,27,4,29.73,,NNE,18.4,,,,,30,2012-11-19 00:00:00
8:00 AM,91.4,26.6,10,29.74,-9999.0,NNE,18.4,-,N/A,,Unknown,30,2012-11-19 00:00:00
9:00 AM,95,27,4,29.72,,North,18.4,,,,,10,2012-11-19 01:00:00
9:00 AM,95.0,26.6,9,29.71,-9999.0,North,18.4,-,N/A,,Unknown,10,2012-11-19 01:00:00
10:00 AM,102.2,23.0,6,29.68,-9999.0,North,17.3,-,N/A,,Unknown,10,2012-11-19 02:00:00
10:38 AM,105.8,21.2,5,29.65,-9999.0,North,25.3,-,N/A,,Unknown,350,2012-11-19 02:38:00
10:45 AM,105.8,24.8,6,29.65,-9999.0,NNW,25.3,36.8,N/A,,Unknown,340,2012-11-19 02:45:00
11:00 AM,108,27,4,29.65,,NNW,25.3,,,,,330,2012-11-19 03:00:00
11:00 AM,107.6,26.6,6,29.65,-9999.0,NNW,25.3,36.8,N/A,,Unknown,330,2012-11-19 03:00:00
12:00 PM,109.4,28.4,6,29.62,-9999.0,NNW,23.0,35.7,N/A,,Unknown,340,2012-11-19 04:00:00
12:49 PM,107.6,33.8,8,29.62,-9999.0,NW,27.6,-,N/A,,Unknown,310,2012-11-19 04:49:00
1:00 PM,107.6,30.2,7,29.59,-9999.0,NW,25.3,-,N/A,,Unknown,310,2012-11-19 05:00:00
1:05 PM,107.6,33.8,8,29.59,-9999.0,NW,25.3,36.8,N/A,,Unknown,320,2012-11-19 05:05:00
2:00 PM,106,29,4,29.58,,NW,24.2,,,,,320,2012-11-19 06:00:00
2:02 PM,105.8,30.2,7,29.59,-9999.0,NW,21.9,33.4,N/A,,Unknown,320,2012-11-19 06:02:00
3:00 PM,104,34,4,29.57,,NW,21.9,,,,,320,2012-11-19 07:00:00
3:00 PM,104.0,33.8,9,29.56,-9999.0,NW,21.9,-,N/A,,Unknown,320,2012-11-19 07:00:00
3:20 PM,102.2,41.0,12,29.56,-9999.0,NW,19.6,31.1,N/A,,Unknown,310,2012-11-19 07:20:00
3:29 PM,104.0,33.8,9,29.56,-9999.0,West,24.2,-,N/A,,Unknown,270,2012-11-19 07:29:00
3:40 PM,104.0,32.0,8,29.56,-9999.0,WNW,17.3,28.8,N/A,,Unknown,290,2012-11-19 07:40:00
4:00 PM,105.8,32.0,8,29.56,-9999.0,NW,19.6,-,N/A,,Unknown,320,2012-11-19 08:00:00
5:00 PM,99,40,7,29.59,,North,15.0,,,,,0,2012-11-19 09:00:00
5:00 PM,98.6,39.2,13,29.59,-9999.0,North,15.0,-,N/A,,Unknown,360,2012-11-19 09:00:00
5:23 PM,98.6,32.0,10,29.62,-9999.0,South,17.3,32.2,N/A,,Unknown,180,2012-11-19 09:23:00
6:00 PM,92,34,6,29.67,,South,21.9,,,,,180,2012-11-19 10:00:00
6:00 PM,93.2,33.8,12,29.68,-9999.0,South,21.9,-,N/A,,Unknown,180,2012-11-19 10:00:00
6:46 PM,86.0,37.4,18,29.74,-9999.0,South,18.4,-,N/A,,Unknown,170,2012-11-19 10:46:00
7:00 PM,84.2,37.4,19,29.74,-9999.0,South,18.4,-,N/A,,Unknown,170,2012-11-19 11:00:00
8:00 PM,79,44,19,29.78,,South,18.4,,,,,190,2012-11-19 12:00:00
8:00 PM,78.8,44.6,30,29.77,-9999.0,South,18.4,-,N/A,,Unknown,190,2012-11-19 12:00:00
9:00 PM,75,51,32,29.81,,SSW,23.0,,,,,200,2012-11-19 13:00:00
9:00 PM,75.2,51.8,44,29.80,-9999.0,SSW,23.0,-,N/A,,Unknown,200,2012-11-19 13:00:00
10:00 PM,71.6,53.6,53,29.80,-9999.0,SSW,21.9,-,N/A,,Unknown,200,2012-11-19 14:00:00
11:00 PM,69,54,48,29.81,,SSW,20.7,,,,,210,2012-11-19 15:00:00
11:00 PM,68.0,53.6,60,29.83,-9999.0,SSW,20.7,-,N/A,,Unknown,210,2012-11-19 15:00:00